This is the latest recevied weather packets stored in our database for station/object WX1NWA. If no packets are shown the sender has not sent any weather packets the latest 10 day(s).
| Time | Temp. | Humidity | Pressure | Rain* | Wind** | Luminosity | Snow |
|---|---|---|---|---|---|---|---|
| 1777978319 | 13.89° C | 99% | 1010 hPa | 0 mm | - | 0 W/m² | - |
| 1777978016 | 13.89° C | 99% | 1010 hPa | 0 mm | - | 0 W/m² | - |
| 1777977714 | 13.89° C | 99% | 1009.9 hPa | 0 mm | - | 0 W/m² | - |
| 1777977410 | 13.89° C | 99% | 1009.8 hPa | 0 mm | - | 0 W/m² | - |
| 1777977108 | 13.89° C | 99% | 1009.8 hPa | 0 mm | - | 0 W/m² | - |
| 1777976805 | 13.89° C | 99% | 1010.2 hPa | 0 mm | - | 0 W/m² | - |
| 1777976503 | 13.89° C | 99% | 1009.8 hPa | 1.27 mm | - | 0 W/m² | - |
| 1777976201 | 13.89° C | 99% | 1009.2 hPa | 1.27 mm | - | 0 W/m² | - |
| 1777975897 | 13.89° C | 99% | 1009.7 hPa | 1.27 mm | - | 0 W/m² | - |
| 1777975593 | 13.89° C | 99% | 1010.4 hPa | 1.78 mm | - | 0 W/m² | - |
| 1777975290 | 13.89° C | 99% | 1009.9 hPa | 3.56 mm | - | 0 W/m² | - |
| 1777974987 | 13.89° C | 99% | 1009.7 hPa | 1.78 mm | - | 0 W/m² | - |
| 1777974684 | 13.89° C | 99% | 1010.3 hPa | 1.78 mm | - | 0 W/m² | - |
| 1777974380 | 13.89° C | 99% | 1009.6 hPa | 1.27 mm | - | 0 W/m² | - |
| 1777974076 | 13.89° C | 99% | 1009.1 hPa | 3.05 mm | - | 0 W/m² | - |
| 1777973773 | 13.89° C | 99% | 1009.2 hPa | 4.83 mm | - | 0 W/m² | - |
| 1777973470 | 13.89° C | 99% | 1009.7 hPa | 6.1 mm | - | 0 W/m² | - |
| 1777973167 | 13.89° C | 99% | 1009.6 hPa | 31.75 mm | - | 0 W/m² | - |
| 1777972866 | 13.89° C | 99% | 1009.5 hPa | 48.51 mm | - | 0 W/m² | - |
| 1777972562 | 13.89° C | 99% | 1010.8 hPa | 31.75 mm | - | 0 W/m² | - |
| 1777972260 | 13.89° C | 99% | 1010.7 hPa | 24.64 mm | - | 0 W/m² | - |
| 1777971958 | 13.89° C | 99% | 1010.4 hPa | 14.99 mm | - | 0 W/m² | - |
| 1777971656 | 13.89° C | 99% | 1009.7 hPa | 1.27 mm | - | 0 W/m² | - |
| 1777971353 | 13.89° C | 99% | 1007.4 hPa | 3.05 mm | - | 0 W/m² | - |
| 1777971051 | 13.89° C | 99% | 1007.3 hPa | 6.1 mm | - | 0 W/m² | - |
* Rain latest hour (hover to see other rain measurements)
** Current wind speed in m/s (hover to see current wind gust speed)